Theta_e
332 333 336 335 336 335 338 336 338 337 341 336 331 326 322 319 315 314 310 306 305 304
333 334 335 334 336 336 336 338 338 340 335 331 327 324 319 314 311 310 307 307 307 306
332 335 336 335 334 335 335 336 337 335 331 327 324 321 315 311 309 307 306 308 306 306
326 333 334 334 334 335 336 336 334 332 327 323 320 317 313 310 308 307 306 305 304 303
326 332 332 333 334 334 335 336 332 329 323 318 314 313 311 309 307 305 303 302 303 302
324 327 329 331 333 333 335 332 328 323 317 313 311 308 308 305 304 302 301 301 299 300
319 323 324 328 328 330 330 325 320 317 312 310 308 306 305 302 300 300 299 299 299 299
321 323 324 326 324 323 319 315 312 310 308 308 307 304 301 299 298 298 297 298 300 301
321 319 315 313 312 315 312 310 308 307 305 305 304 301 301 300 298 295 294 293 294 295
313 313 311 309 307 307 307 306 305 303 303 301 301 300 300 301 298 295 292 291 292 293
309 309 308 307 305 303 303 302 302 302 301 300 299 298 297 296 292 291 291 291 289 288
308 306 305 302 302 302 302 301 300 300 299 297 295 295 294 292 290 290 289 289 288 288
305 303 301 301 301 302 301 299 299 298 297 296 292 293 292 291 291 288 287 286 288 295
302 301 300 300 300 299 298 298 297 296 294 292 292 293 293 293 290 289 288 287 286 287
Wind_Speed
17 11 11 12 9 10 10 12 15 18 16 12 14 12 11 9 8 9 8 8 6 6
15 16 12 12 11 8 10 12 16 17 12 14 15 14 13 10 10 10 8 7 7 7
13 14 11 10 12 11 11 15 13 13 12 15 15 14 14 10 9 12 5 6 10 7
13 13 11 11 12 12 13 15 14 14 15 16 16 13 12 11 11 13 11 9 9 8
14 12 11 11 12 13 15 15 16 15 14 16 17 14 15 14 10 13 13 10 10 8
4 6 8 9 10 12 15 18 16 16 15 15 16 17 14 14 13 13 12 9 9 7
3 4 5 7 7 11 11 16 19 17 17 16 16 16 17 16 14 13 11 11 10 8
5 10 11 9 13 17 19 12 15 19 19 17 16 12 18 16 15 12 12 10 9 7
9 16 14 17 16 14 18 20 17 18 18 18 12 24 24 19 14 12 12 11 8 8
11 19 17 20 21 16 14 20 21 19 18 19 16 21 23 20 11 11 10 9 9 8
15 16 17 18 21 23 12 19 19 18 17 20 15 22 19 20 13 12 11 8 8 9
16 17 17 19 17 19 22 17 19 17 18 17 15 18 17 16 12 13 10 7 7 8
14 18 20 19 19 17 20 20 16 19 16 19 12 14 14 15 10 13 7 6 7 11
13 17 22 21 18 19 18 19 18 17 13 16 10 11 13 13 10 10 7 5 5 5
Wind_Direction
216 201 206 190 195 205 181 194 205 200 212 148 131 125 121 116 107 115 110 116 99 104
217 206 195 184 184 188 160 182 186 192 164 137 129 129 127 122 120 117 113 117 109 103
209 206 190 173 181 172 158 170 172 151 150 137 126 129 120 115 112 105 93 97 88 84
209 208 190 173 175 171 164 165 161 155 156 136 124 122 116 113 117 105 102 85 93 78
203 194 175 176 181 164 167 162 153 150 142 129 123 123 126 119 110 108 99 102 100 96
248 168 169 183 180 175 162 152 145 139 134 123 118 113 105 105 100 97 94 94 86 87
98 165 163 177 175 125 131 142 137 137 121 111 114 109 111 104 102 96 96 89 88 89
151 115 106 102 117 132 122 113 114 116 112 119 116 120 113 107 104 106 98 88 87 86
123 101 100 95 91 105 122 119 111 103 104 108 113 107 110 105 109 115 106 102 92 73
95 107 108 108 98 96 113 106 119 103 106 101 100 104 99 116 113 105 103 101 97 82
100 102 108 108 111 102 93 97 98 103 100 97 96 90 103 103 102 98 87 98 95 93
106 103 103 100 103 109 109 100 95 95 97 91 98 113 111 109 101 97 98 94 89 94
96 103 101 104 96 99 98 103 101 100 100 110 117 110 109 112 116 104 105 77 72 75
91 103 102 99 99 99 97 104 104 107 118 112 126 113 113 114 113 111 108 96 78 49